| time (UTC) | temp F | wind direction | speed MPH | gust MPH | rain 1hr in | rain 24hr in | rain mn in | humidity % | barometer mb |
| 20260906171359 | 77 | 94 | 8.0 | 13.0 | 0.00 | 0.41 | 0.00 | 49 | 1016.9 |
| 20260906170859 | 77 | 35 | 9.0 | 17.0 | 0.00 | 0.41 | 0.00 | 50 | 1017.1 |
| 20260906170358 | 77 | 345 | 9.0 | 15.0 | 0.00 | 0.41 | 0.00 | 50 | 1017.1 |
| 20260906165858 | 77 | 90 | 6.0 | 16.0 | 0.00 | 0.41 | 0.00 | 52 | 1017.1 |
| 20260906165357 | 76 | 1 | 9.0 | 13.0 | 0.00 | 0.41 | 0.00 | 51 | 1017.2 |
| 20260906164857 | 76 | 6 | 7.0 | 12.0 | 0.00 | 0.41 | 0.00 | 50 | 1017.3 |
| 20260906164357 | 77 | 34 | 8.0 | 14.0 | 0.00 | 0.41 | 0.00 | 51 | 1017.4 |
| 20260906164026 | 76 | 31 | 5.0 | 14.0 | 0.00 | 0.41 | 0.00 | 51 | 1017.3 |
| 20260906163856 | 76 | 31 | 5.0 | 14.0 | 0.00 | 0.41 | 0.00 | 51 | 1017.3 |
| 20260906163355 | 76 | 0 | 8.0 | 15.0 | 0.00 | 0.41 | 0.00 | 50 | 1017.4 |
| 20260906162855 | 77 | 13 | 6.0 | 12.0 | 0.00 | 0.41 | 0.00 | 50 | 1017.3 |
| 20260906162354 | 76 | 21 | 6.0 | 13.0 | 0.00 | 0.41 | 0.00 | 51 | 1017.5 |
| 20260906161854 | 76 | 110 | 7.0 | 18.0 | 0.00 | 0.41 | 0.00 | 50 | 1017.5 |
| 20260906161353 | 76 | 7 | 5.0 | 16.0 | 0.00 | 0.41 | 0.00 | 52 | 1017.6 |
| 20260906160853 | 75 | 342 | 10.0 | 15.0 | 0.00 | 0.41 | 0.00 | 53 | 1017.7 |
| 20260906155852 | 75 | 41 | 11.0 | 15.0 | 0.00 | 0.41 | 0.00 | 52 | 1017.7 |
| 20260906155351 | 75 | 35 | 10.0 | 15.0 | 0.00 | 0.41 | 0.00 | 53 | 1017.6 |
| 20260906154850 | 75 | 21 | 9.0 | 15.0 | 0.00 | 0.41 | 0.00 | 54 | 1017.7 |
| 20260906154350 | 75 | 7 | 8.0 | 17.0 | 0.00 | 0.41 | 0.00 | 53 | 1017.6 |
| 20260906153849 | 75 | 23 | 9.0 | 12.0 | 0.00 | 0.41 | 0.00 | 54 | 1017.7 |
| 20260906153349 | 75 | 7 | 5.0 | 14.0 | 0.00 | 0.41 | 0.00 | 54 | 1017.7 |
| 20260906152849 | 74 | 13 | 8.0 | 14.0 | 0.00 | 0.41 | 0.00 | 52 | 1017.6 |
| 20260906152348 | 74 | 17 | 10.0 | 14.0 | 0.00 | 0.41 | 0.00 | 53 | 1017.7 |
| 20260906151847 | 74 | 11 | 9.0 | 15.0 | 0.00 | 0.41 | 0.00 | 53 | 1017.7 |
| 20260906151347 | 74 | 359 | 4.0 | 11.0 | 0.00 | 0.41 | 0.00 | 55 | 1017.6 |
| 20260906150846 | 74 | 359 | 3.0 | 14.0 | 0.00 | 0.41 | 0.00 | 56 | 1017.6 |
| 20260906150346 | 74 | 329 | 8.0 | 15.0 | 0.00 | 0.41 | 0.00 | 56 | 1017.5 |
| 20260906145845 | 73 | 359 | 7.0 | 14.0 | 0.00 | 0.41 | 0.00 | 57 | 1017.5 |
| 20260906145345 | 73 | 65 | 7.0 | 15.0 | 0.00 | 0.41 | 0.00 | 56 | 1017.4 |
| 20260906144844 | 73 | 42 | 6.0 | 16.0 | 0.00 | 0.41 | 0.00 | 58 | 1017.4 |
| 20260906144344 | 72 | 8 | 11.0 | 13.0 | 0.00 | 0.41 | 0.00 | 57 | 1017.4 |
| 20260906143843 | 73 | 113 | 7.0 | 18.0 | 0.00 | 0.41 | 0.00 | 57 | 1017.5 |
| 20260906143343 | 72 | 63 | 11.0 | 16.0 | 0.00 | 0.41 | 0.00 | 57 | 1017.4 |
| 20260906142842 | 72 | 31 | 9.0 | 17.0 | 0.00 | 0.41 | 0.00 | 57 | 1017.3 |
| 20260906142342 | 73 | 325 | 6.0 | 13.0 | 0.00 | 0.41 | 0.00 | 58 | 1017.2 |
| 20260906141841 | 73 | 359 | 7.0 | 9.0 | 0.00 | 0.41 | 0.00 | 57 | 1017.1 |
| 20260906141340 | 73 | 167 | 2.0 | 13.0 | 0.00 | 0.41 | 0.00 | 59 | 1017.0 |
| 20260906140840 | 72 | 51 | 6.0 | 16.0 | 0.00 | 0.41 | 0.00 | 58 | 1017.1 |
| 20260906140340 | 72 | 353 | 8.0 | 16.0 | 0.00 | 0.41 | 0.00 | 59 | 1017.2 |
| 20260906135839 | 71 | 8 | 11.0 | 17.0 | 0.00 | 0.41 | 0.00 | 59 | 1017.2 |
| 20260906135338 | 71 | 30 | 8.0 | 13.0 | 0.00 | 0.41 | 0.00 | 59 | 1017.2 |
| 20260906134838 | 71 | 20 | 7.0 | 10.0 | 0.00 | 0.41 | 0.00 | 60 | 1017.0 |
| 20260906134338 | 71 | 345 | 4.0 | 10.0 | 0.00 | 0.41 | 0.00 | 62 | 1017.1 |
| 20260906133837 | 70 | 345 | 5.0 | 12.0 | 0.00 | 0.41 | 0.00 | 64 | 1017.0 |
| 20260906133336 | 70 | 49 | 3.0 | 9.0 | 0.00 | 0.41 | 0.00 | 66 | 1017.1 |
| 20260906132836 | 70 | 68 | 2.0 | 8.0 | 0.00 | 0.41 | 0.00 | 66 | 1017.2 |
| 20260906131835 | 69 | 32 | 7.0 | 9.0 | 0.00 | 0.41 | 0.00 | 66 | 1017.1 |
| 20260906131334 | 70 | 58 | 2.0 | 9.0 | 0.00 | 0.41 | 0.00 | 67 | 1017.1 |
| 20260906130834 | 69 | 323 | 3.0 | 9.0 | 0.00 | 0.41 | 0.00 | 67 | 1017.0 |
| 20260906130333 | 69 | 35 | 4.0 | 7.0 | 0.00 | 0.41 | 0.00 | 67 | 1017.0 |
| 20260906125833 | 69 | 359 | 5.0 | 7.0 | 0.00 | 0.41 | 0.00 | 68 | 1016.9 |
| 20260906125332 | 69 | 27 | 5.0 | 6.0 | 0.00 | 0.41 | 0.00 | 68 | 1016.8 |
| 20260906124832 | 69 | 24 | 4.0 | 4.0 | 0.00 | 0.41 | 0.00 | 69 | 1016.8 |
| 20260906124331 | 69 | 336 | 2.0 | 6.0 | 0.00 | 0.41 | 0.00 | 70 | 1016.8 |
| 20260906123831 | 69 | 0 | 3.0 | 6.0 | 0.00 | 0.41 | 0.00 | 70 | 1016.8 |
| 20260906123330 | 68 | 39 | 4.0 | 9.0 | 0.00 | 0.41 | 0.00 | 70 | 1016.7 |
| 20260906122830 | 68 | 48 | 5.0 | 5.0 | 0.00 | 0.41 | 0.00 | 71 | 1016.6 |
| 20260906122328 | 68 | 107 | 2.0 | 6.0 | 0.00 | 0.41 | 0.00 | 72 | 1016.5 |
| 20260906121826 | 68 | 329 | 2.0 | 6.0 | 0.00 | 0.41 | 0.00 | 73 | 1016.5 |
| 20260906121326 | 68 | 352 | 4.0 | 5.0 | 0.00 | 0.41 | 0.00 | 72 | 1016.4 |
| 20260906120825 | 68 | 4 | 2.0 | 5.0 | 0.00 | 0.41 | 0.00 | 73 | 1016.3 |
| 20260906120325 | 68 | 345 | 2.0 | 7.0 | 0.00 | 0.41 | 0.00 | 73 | 1016.3 |
| 20260906115824 | 68 | 359 | 2.0 | 4.0 | 0.00 | 0.41 | 0.00 | 73 | 1016.1 |
| 20260906115324 | 68 | 1 | 3.0 | 5.0 | 0.00 | 0.41 | 0.00 | 74 | 1016.2 |
| 20260906114823 | 68 | 37 | 3.0 | 7.0 | 0.00 | 0.41 | 0.00 | 75 | 1015.9 |
| 20260906114323 | 67 | 345 | 5.0 | 4.0 | 0.00 | 0.41 | 0.00 | 75 | 1015.9 |
| 20260906113822 | 68 | 45 | 1.0 | 5.0 | 0.00 | 0.41 | 0.00 | 77 | 1015.8 |
| 20260906113322 | 67 | 56 | 2.0 | 4.0 | 0.00 | 0.41 | 0.00 | 77 | 1015.7 |
| 20260906112821 | 67 | 4 | 2.0 | 4.0 | 0.00 | 0.41 | 0.00 | 78 | 1015.7 |
| 20260906112321 | 68 | 309 | 1.0 | 4.0 | 0.00 | 0.41 | 0.00 | 78 | 1015.7 |
| 20260906111820 | 67 | 340 | 3.0 | 4.0 | 0.00 | 0.41 | 0.00 | 78 | 1015.7 |
| 20260906111320 | 67 | 312 | 1.0 | 6.0 | 0.00 | 0.41 | 0.00 | 78 | 1015.6 |
| 20260906110819 | 67 | 329 | 3.0 | 4.0 | 0.00 | 0.41 | 0.00 | 78 | 1015.5 |
| 20260906110318 | 67 | 342 | 2.0 | 4.0 | 0.00 | 0.41 | 0.00 | 78 | 1015.4 |
| 20260906105818 | 67 | 318 | 0.0 | 5.0 | 0.00 | 0.41 | 0.00 | 78 | 1015.4 |
| 20260906105317 | 67 | 349 | 3.0 | 5.0 | 0.00 | 0.41 | 0.00 | 78 | 1015.4 |
| 20260906104817 | 67 | 325 | 1.0 | 3.0 | 0.00 | 0.41 | 0.00 | 79 | 1015.4 |
| 20260906104016 | 67 | 20 | 3.0 | 7.0 | 0.00 | 0.41 | 0.00 | 78 | 1015.3 |
| 20260906103816 | 67 | 20 | 3.0 | 7.0 | 0.00 | 0.41 | 0.00 | 78 | 1015.3 |
| 20260906103315 | 67 | 17 | 4.0 | 7.0 | 0.00 | 0.41 | 0.00 | 79 | 1015.2 |
| 20260906102815 | 67 | 6 | 3.0 | 8.0 | 0.00 | 0.41 | 0.00 | 79 | 1015.2 |
| 20260906102314 | 67 | 350 | 2.0 | 5.0 | 0.00 | 0.41 | 0.00 | 79 | 1015.2 |
| 20260906101814 | 67 | 353 | 3.0 | 9.0 | 0.00 | 0.41 | 0.00 | 79 | 1015.3 |
| 20260906101314 | 68 | 350 | 4.0 | 6.0 | 0.00 | 0.41 | 0.00 | 79 | 1015.2 |
| 20260906100813 | 68 | 20 | 2.0 | 6.0 | 0.00 | 0.41 | 0.00 | 79 | 1015.2 |
| 20260906100312 | 68 | 25 | 2.0 | 7.0 | 0.00 | 0.41 | 0.00 | 79 | 1015.1 |
| 20260906095811 | 68 | 340 | 2.0 | 7.0 | 0.00 | 0.41 | 0.00 | 79 | 1015.0 |
| 20260906094810 | 68 | 24 | 3.0 | 7.0 | 0.00 | 0.41 | 0.00 | 79 | 1014.9 |
| 20260906094309 | 68 | 4 | 5.0 | 6.0 | 0.00 | 0.41 | 0.00 | 79 | 1015.1 |
| 20260906093309 | 68 | 340 | 5.0 | 6.0 | 0.00 | 0.41 | 0.00 | 80 | 1015.0 |
| 20260906092808 | 68 | 31 | 1.0 | 5.0 | 0.00 | 0.41 | 0.00 | 80 | 1015.0 |
| 20260906092306 | 68 | 297 | 5.0 | 7.0 | 0.00 | 0.41 | 0.00 | 81 | 1014.9 |
| 20260906091805 | 68 | 20 | 3.0 | 5.0 | 0.00 | 0.41 | 0.00 | 82 | 1014.9 |
| 20260906091304 | 68 | 339 | 3.0 | 5.0 | 0.00 | 0.41 | 0.00 | 83 | 1014.9 |
| 20260906090303 | 68 | 23 | 4.0 | 6.0 | 0.00 | 0.41 | 0.00 | 82 | 1014.8 |
| 20260906085802 | 69 | 353 | 3.0 | 4.0 | 0.00 | 0.41 | 0.00 | 82 | 1014.8 |
| 20260906085306 | 69 | 353 | 4.0 | 5.0 | 0.00 | 0.41 | 0.00 | 82 | 1014.7 |
| 20260906084801 | 69 | 1 | 4.0 | 9.0 | 0.00 | 0.41 | 0.00 | 82 | 1014.6 |
| 20260906084301 | 69 | 323 | 4.0 | 6.0 | 0.00 | 0.41 | 0.00 | 82 | 1014.6 |
| 20260906083800 | 69 | 38 | 3.0 | 7.0 | 0.00 | 0.41 | 0.00 | 82 | 1014.5 |
| 20260906083300 | 69 | 357 | 4.0 | 9.0 | 0.00 | 0.41 | 0.00 | 81 | 1014.5 |
| 20260906082759 | 69 | 63 | 7.0 | 9.0 | 0.00 | 0.41 | 0.00 | 81 | 1014.6 |
| 20260906082259 | 69 | 24 | 2.0 | 8.0 | 0.00 | 0.41 | 0.00 | 83 | 1014.7 |
| 20260906081758 | 69 | 346 | 3.0 | 6.0 | 0.00 | 0.41 | 0.00 | 83 | 1014.7 |
| 20260906081257 | 70 | 38 | 0.0 | 7.0 | 0.00 | 0.41 | 0.00 | 85 | 1014.6 |
| 20260906080756 | 69 | 23 | 2.0 | 6.0 | 0.00 | 0.41 | 0.00 | 85 | 1014.5 |
| 20260906080256 | 70 | 59 | 1.0 | 5.0 | 0.00 | 0.41 | 0.00 | 86 | 1014.6 |
| 20260906075755 | 70 | 354 | 0.0 | 4.0 | 0.00 | 0.41 | 0.00 | 87 | 1014.6 |
| 20260906075254 | 70 | 58 | 1.0 | 6.0 | 0.00 | 0.41 | 0.00 | 87 | 1014.5 |
| 20260906074753 | 70 | 342 | 0.0 | 6.0 | 0.00 | 0.41 | 0.00 | 87 | 1014.7 |
| 20260906074252 | 70 | 7 | 2.0 | 6.0 | 0.00 | 0.41 | 0.00 | 87 | 1014.6 |
| 20260906073252 | 70 | 346 | 0.0 | 6.0 | 0.00 | 0.41 | 0.00 | 88 | 1014.5 |
| 20260906072751 | 70 | 21 | 3.0 | 5.0 | 0.00 | 0.41 | 0.00 | 88 | 1014.6 |
| 20260906072250 | 70 | 335 | 0.0 | 0.0 | 0.00 | 0.41 | 0.00 | 89 | 1014.7 |
| 20260906071249 | 70 | 15 | 4.0 | 6.0 | 0.00 | 0.41 | 0.00 | 89 | 1014.6 |
| 20260906070749 | 70 | 347 | 4.0 | 7.0 | 0.00 | 0.41 | 0.00 | 89 | 1014.6 |
| 20260906070248 | 71 | 3 | 4.0 | 6.0 | 0.00 | 0.41 | 0.00 | 89 | 1014.6 |
| 20260906064245 | 71 | 340 | 4.0 | 8.0 | 0.00 | 0.41 | 0.00 | 89 | 1014.5 |
| 20260906063745 | 71 | 24 | 2.0 | 6.0 | 0.00 | 0.41 | 0.00 | 88 | 1014.6 |
| 20260906063244 | 71 | 63 | 4.0 | 9.0 | 0.00 | 0.41 | 0.00 | 89 | 1014.5 |
| 20260906062742 | 72 | 31 | 2.0 | 9.0 | 0.00 | 0.41 | 0.00 | 89 | 1014.6 |
| 20260906062241 | 72 | 342 | 5.0 | 8.0 | 0.00 | 0.41 | 0.00 | 89 | 1014.7 |
| 20260906061741 | 72 | 27 | 2.0 | 8.0 | 0.00 | 0.41 | 0.00 | 89 | 1014.7 |
| 20260906061240 | 72 | 346 | 3.0 | 7.0 | 0.00 | 0.41 | 0.00 | 89 | 1014.6 |
| 20260906060740 | 72 | 326 | 4.0 | 7.0 | 0.00 | 0.41 | 0.00 | 89 | 1014.6 |
| 20260906060239 | 72 | 345 | 3.0 | 5.0 | 0.00 | 0.41 | 0.00 | 89 | 1014.7 |
| 20260906055739 | 73 | 338 | 2.0 | 4.0 | 0.00 | 0.41 | 0.00 | 88 | 1014.7 |
| 20260906055238 | 73 | 1 | 3.0 | 5.0 | 0.00 | 0.41 | 0.00 | 87 | 1014.6 |
| 20260906054737 | 73 | 23 | 0.0 | 4.0 | 0.00 | 0.41 | 0.00 | 87 | 1014.6 |
| 20260906054237 | 73 | 6 | 1.0 | 4.0 | 0.00 | 0.41 | 0.00 | 86 | 1014.5 |
| 20260906053736 | 73 | 6 | 0.0 | 6.0 | 0.00 | 0.41 | 0.00 | 86 | 1014.5 |
| 20260906053236 | 73 | 23 | 0.0 | 8.0 | 0.00 | 0.41 | 0.00 | 86 | 1014.5 |
| 20260906052735 | 73 | 27 | 2.0 | 8.0 | 0.00 | 0.41 | 0.00 | 86 | 1014.3 |
| 20260906052235 | 73 | 52 | 1.0 | 9.0 | 0.00 | 0.41 | 0.00 | 86 | 1014.3 |
| 20260906051734 | 73 | 25 | 5.0 | 9.0 | 0.00 | 0.41 | 0.00 | 85 | 1014.4 |
| 20260906051234 | 73 | 82 | 5.0 | 10.0 | 0.00 | 0.41 | 0.00 | 86 | 1014.2 |
| 20260906050733 | 73 | 38 | 5.0 | 10.0 | 0.00 | 0.41 | 0.00 | 86 | 1014.1 |
| 20260906050233 | 73 | 28 | 6.0 | 9.0 | 0.00 | 0.41 | 0.00 | 86 | 1014.1 |
| 20260906045732 | 74 | 65 | 3.0 | 8.0 | 0.00 | 0.41 | 0.00 | 86 | 1014.0 |
| 20260906045232 | 73 | 18 | 6.0 | 10.0 | 0.00 | 0.41 | 0.00 | 86 | 1013.8 |
| 20260906044731 | 74 | 52 | 6.0 | 14.0 | 0.00 | 0.02 | 0.41 | 87 | 1013.8 |
| 20260906044231 | 74 | 18 | 6.0 | 11.0 | 0.00 | 0.02 | 0.41 | 87 | 1013.8 |
| 20260906043730 | 74 | 359 | 3.0 | 10.0 | 0.00 | 0.02 | 0.41 | 88 | 1013.8 |
| 20260906043230 | 74 | 343 | 4.0 | 9.0 | 0.00 | 0.02 | 0.41 | 88 | 1013.7 |
| 20260906042729 | 75 | 328 | 2.0 | 7.0 | 0.00 | 0.02 | 0.41 | 88 | 1013.6 |
| 20260906042229 | 74 | 75 | 5.0 | 7.0 | 0.00 | 0.02 | 0.41 | 88 | 1013.6 |
| 20260906041227 | 75 | 42 | 4.0 | 6.0 | 0.00 | 0.02 | 0.41 | 88 | 1013.6 |
| 20260906040727 | 75 | 21 | 1.0 | 7.0 | 0.00 | 0.02 | 0.41 | 89 | 1013.5 |
| 20260906040226 | 75 | 7 | 4.0 | 10.0 | 0.00 | 0.02 | 0.41 | 89 | 1013.5 |
| 20260906035226 | 75 | 13 | 1.0 | 5.0 | 0.00 | 0.02 | 0.41 | 88 | 1013.6 |
| 20260906034725 | 75 | 357 | 0.0 | 6.0 | 0.00 | 0.02 | 0.41 | 88 | 1013.5 |
| 20260906034224 | 75 | 359 | 3.0 | 6.0 | 0.00 | 0.02 | 0.41 | 88 | 1013.6 |
| 20260906033724 | 75 | 13 | 4.0 | 8.0 | 0.00 | 0.02 | 0.41 | 88 | 1013.5 |
| 20260906033223 | 76 | 44 | 2.0 | 6.0 | 0.00 | 0.02 | 0.41 | 87 | 1013.5 |
| 20260906032723 | 76 | 8 | 4.0 | 8.0 | 0.00 | 0.02 | 0.41 | 87 | 1013.4 |
| 20260906032222 | 76 | 342 | 4.0 | 7.0 | 0.00 | 0.02 | 0.41 | 87 | 1013.5 |
| 20260906031722 | 76 | 17 | 3.0 | 7.0 | 0.00 | 0.02 | 0.41 | 87 | 1013.5 |
| 20260906031221 | 76 | 17 | 3.0 | 7.0 | 0.00 | 0.02 | 0.41 | 87 | 1013.4 |
| 20260906030721 | 76 | 10 | 5.0 | 7.0 | 0.00 | 0.02 | 0.41 | 87 | 1013.5 |
| 20260906030220 | 76 | 30 | 2.0 | 4.0 | 0.00 | 0.02 | 0.41 | 87 | 1013.7 |
| 20260906025720 | 76 | 4 | 0.0 | 3.0 | 0.00 | 0.02 | 0.41 | 87 | 1013.6 |
| 20260906025219 | 76 | 13 | 3.0 | 5.0 | 0.00 | 0.02 | 0.41 | 87 | 1013.6 |
| 20260906024718 | 76 | 18 | 1.0 | 5.0 | 0.00 | 0.02 | 0.41 | 87 | 1013.7 |
| 20260906024218 | 76 | 10 | 2.0 | 4.0 | 0.00 | 0.02 | 0.41 | 87 | 1013.7 |
| 20260906023717 | 76 | 25 | 3.0 | 5.0 | 0.00 | 0.02 | 0.41 | 87 | 1013.7 |
| 20260906023217 | 76 | 4 | 0.0 | 3.0 | 0.00 | 0.02 | 0.41 | 87 | 1013.8 |
| 20260906022715 | 77 | 27 | 1.0 | 2.0 | 0.00 | 0.02 | 0.41 | 87 | 1013.8 |
| 20260906022215 | 77 | 11 | 1.0 | 4.0 | 0.00 | 0.02 | 0.41 | 88 | 1013.7 |
| 20260906021715 | 77 | 39 | 0.0 | 0.0 | 0.00 | 0.02 | 0.41 | 87 | 1013.7 |
| 20260906021214 | 77 | 39 | 0.0 | 0.0 | 0.00 | 0.02 | 0.41 | 87 | 1013.7 |
| 20260906020713 | 77 | 39 | 0.0 | 0.0 | 0.00 | 0.02 | 0.41 | 87 | 1013.5 |
| 20260906020213 | 77 | 39 | 0.0 | 0.0 | 0.00 | 0.02 | 0.41 | 87 | 1013.6 |
| 20260906015712 | 77 | 39 | 0.0 | 0.0 | 0.00 | 0.02 | 0.41 | 87 | 1013.6 |
| 20260906015212 | 77 | 39 | 0.0 | 0.0 | 0.00 | 0.02 | 0.41 | 87 | 1013.6 |
| 20260906014711 | 77 | 39 | 0.0 | 1.0 | 0.08 | 0.02 | 0.41 | 87 | 1013.6 |
| 20260906014211 | 78 | 39 | 1.0 | 2.0 | 0.08 | 0.02 | 0.41 | 87 | 1013.6 |
| 20260906013710 | 78 | 42 | 0.0 | 4.0 | 0.08 | 0.02 | 0.41 | 87 | 1013.4 |
| 20260906013210 | 78 | 352 | 0.0 | 4.0 | 0.08 | 0.02 | 0.41 | 88 | 1013.4 |
| 20260906012709 | 78 | 51 | 1.0 | 2.0 | 0.08 | 0.02 | 0.41 | 88 | 1013.3 |
| 20260906012209 | 78 | 11 | 0.0 | 0.0 | 0.08 | 0.02 | 0.41 | 88 | 1013.3 |
| 20260906011708 | 78 | 11 | 0.0 | 2.0 | 0.08 | 0.02 | 0.41 | 88 | 1013.3 |
| 20260906011208 | 78 | 352 | 1.0 | 5.0 | 0.08 | 0.02 | 0.41 | 88 | 1013.2 |
| 20260906010707 | 78 | 10 | 3.0 | 5.0 | 0.08 | 0.02 | 0.41 | 89 | 1013.0 |
| 20260906010206 | 79 | 13 | 0.0 | 3.0 | 0.08 | 0.02 | 0.41 | 88 | 1012.9 |
| 20260906005706 | 79 | 338 | 0.0 | 0.0 | 0.08 | 0.02 | 0.41 | 89 | 1013.0 |
| 20260906005205 | 79 | 352 | 0.0 | 3.0 | 0.00 | 0.02 | 0.41 | 87 | 1013.0 |
| 20260906004705 | 79 | 352 | 1.0 | 4.0 | 0.00 | 0.02 | 0.41 | 86 | 1012.8 |
| 20260906004204 | 79 | 44 | 2.0 | 6.0 | 0.00 | 0.02 | 0.41 | 84 | 1012.7 |
| 20260906003704 | 80 | 101 | 1.0 | 7.0 | 0.00 | 0.02 | 0.41 | 82 | 1012.6 |
| 20260906003203 | 80 | 328 | 5.0 | 3.0 | 0.00 | 0.02 | 0.33 | 81 | 1012.8 |
| 20260906002703 | 80 | 333 | 1.0 | 4.0 | 0.00 | 0.02 | 0.33 | 81 | 1012.6 |
| 20260906002202 | 80 | 34 | 3.0 | 5.0 | 0.00 | 0.02 | 0.33 | 81 | 1012.4 |
| 20260906001702 | 80 | 17 | 3.0 | 6.0 | 0.00 | 0.02 | 0.33 | 81 | 1012.5 |
| 20260906001201 | 80 | 28 | 3.0 | 5.0 | 0.00 | 0.02 | 0.33 | 81 | 1012.2 |
| 20260906000701 | 80 | 338 | 4.0 | 8.0 | 0.00 | 0.02 | 0.33 | 80 | 1012.2 |
| 20260906000200 | 80 | 41 | 4.0 | 7.0 | 0.00 | 0.02 | 0.33 | 80 | 1012.4 |
| 20260905235700 | 80 | 6 | 4.0 | 4.0 | 0.00 | 0.02 | 0.33 | 79 | 1012.5 |
| 20260905235159 | 80 | 11 | 3.0 | 4.0 | 0.00 | 0.02 | 0.33 | 77 | 1012.4 |
| 20260905234659 | 81 | 27 | 2.0 | 3.0 | 0.00 | 0.02 | 0.33 | 76 | 1012.3 |
| 20260905234158 | 81 | 353 | 0.0 | 6.0 | 0.00 | 0.02 | 0.33 | 76 | 1012.3 |
| 20260905233658 | 81 | 27 | 2.0 | 5.0 | 0.00 | 0.02 | 0.33 | 76 | 1012.4 |
| 20260905233157 | 81 | 48 | 3.0 | 5.0 | 0.00 | 0.02 | 0.33 | 75 | 1012.3 |
| 20260905232656 | 81 | 330 | 3.0 | 10.0 | 0.00 | 0.02 | 0.33 | 74 | 1012.5 |
| 20260905232156 | 82 | 31 | 6.0 | 10.0 | 0.00 | 0.02 | 0.33 | 73 | 1012.4 |
| 20260905231655 | 83 | 339 | 7.0 | 6.0 | 0.00 | 0.02 | 0.33 | 70 | 1012.7 |
| 20260905231155 | 83 | 295 | 3.0 | 5.0 | 0.00 | 0.02 | 0.33 | 67 | 1012.6 |
| 20260905230654 | 83 | 23 | 2.0 | 5.0 | 0.00 | 0.02 | 0.33 | 67 | 1012.4 |
| 20260905230154 | 83 | 59 | 2.0 | 4.0 | 0.00 | 0.02 | 0.33 | 67 | 1012.1 |
| 20260905225653 | 83 | 335 | 1.0 | 5.0 | 0.00 | 0.02 | 0.33 | 67 | 1012.0 |
| 20260905224652 | 83 | 86 | 3.0 | 7.0 | 0.00 | 0.02 | 0.33 | 67 | 1012.2 |
| 20260905224151 | 83 | 90 | 4.0 | 8.0 | 0.00 | 0.02 | 0.33 | 66 | 1011.8 |
| 20260905223650 | 83 | 83 | 5.0 | 10.0 | 0.00 | 0.02 | 0.33 | 66 | 1011.9 |
| 20260905223150 | 83 | 62 | 5.0 | 7.0 | 0.00 | 0.02 | 0.33 | 66 | 1012.0 |
| 20260905222649 | 83 | 62 | 5.0 | 8.0 | 0.00 | 0.02 | 0.33 | 66 | 1011.9 |
| 20260905222149 | 83 | 10 | 3.0 | 10.0 | 0.00 | 0.02 | 0.33 | 65 | 1012.0 |
| 20260905221648 | 83 | 44 | 6.0 | 9.0 | 0.00 | 0.02 | 0.33 | 66 | 1011.9 |
| 20260905220647 | 85 | 11 | 6.0 | 11.0 | 0.00 | 0.02 | 0.33 | 62 | 1011.7 |
| 20260905220147 | 87 | 32 | 5.0 | 5.0 | 0.00 | 0.02 | 0.33 | 57 | 1011.9 |
| 20260905215646 | 88 | 72 | 2.0 | 6.0 | 0.00 | 0.02 | 0.33 | 55 | 1011.6 |
| 20260905215145 | 88 | 262 | 3.0 | 8.0 | 0.00 | 0.02 | 0.33 | 55 | 1011.4 |
| 20260905214645 | 88 | 330 | 6.0 | 9.0 | 0.00 | 0.02 | 0.33 | 55 | 1011.5 |
| 20260905214145 | 88 | 288 | 4.0 | 5.0 | 0.00 | 0.02 | 0.33 | 54 | 1011.5 |
| 20260905213644 | 88 | 264 | 1.0 | 5.0 | 0.00 | 0.02 | 0.33 | 54 | 1011.5 |
| 20260905213143 | 88 | 342 | 2.0 | 8.0 | 0.00 | 0.02 | 0.33 | 55 | 1011.6 |
| 20260905212643 | 88 | 297 | 3.0 | 8.0 | 0.00 | 0.02 | 0.33 | 55 | 1011.5 |
| 20260905212142 | 88 | 318 | 5.0 | 8.0 | 0.00 | 0.02 | 0.33 | 55 | 1011.6 |
| 20260905211642 | 88 | 314 | 4.0 | 4.0 | 0.00 | 0.02 | 0.33 | 53 | 1011.8 |
| 20260905210641 | 88 | 238 | 2.0 | 9.0 | 0.00 | 0.02 | 0.33 | 54 | 1011.8 |
| 20260905210140 | 88 | 266 | 6.0 | 9.0 | 0.00 | 0.02 | 0.33 | 54 | 1011.9 |
| 20260905205640 | 88 | 315 | 4.0 | 9.0 | 0.00 | 0.02 | 0.33 | 55 | 1012.0 |
| 20260905205139 | 88 | 284 | 6.0 | 9.0 | 0.00 | 0.02 | 0.33 | 53 | 1012.1 |
| 20260905204138 | 88 | 338 | 4.0 | 7.0 | 0.00 | 0.02 | 0.33 | 52 | 1012.2 |
| 20260905203638 | 88 | 201 | 1.0 | 7.0 | 0.00 | 0.02 | 0.33 | 53 | 1012.2 |
| 20260905203136 | 87 | 332 | 4.0 | 8.0 | 0.00 | 0.02 | 0.33 | 54 | 1012.1 |
| 20260905202135 | 87 | 325 | 4.0 | 8.0 | 0.00 | 0.02 | 0.33 | 55 | 1012.2 |
| 20260905201634 | 87 | 281 | 4.0 | 6.0 | 0.00 | 0.02 | 0.33 | 54 | 1012.3 |
| 20260905201134 | 87 | 305 | 3.0 | 7.0 | 0.00 | 0.02 | 0.33 | 54 | 1012.4 |
| 20260905200132 | 87 | 356 | 3.0 | 8.0 | 0.00 | 0.02 | 0.33 | 54 | 1012.6 |
| 20260905195631 | 87 | 314 | 2.0 | 6.0 | 0.00 | 0.02 | 0.33 | 55 | 1012.6 |
| 20260905195131 | 87 | 304 | 2.0 | 8.0 | 0.00 | 0.02 | 0.33 | 54 | 1012.7 |
| 20260905194627 | 86 | 274 | 6.0 | 8.0 | 0.00 | 0.02 | 0.33 | 54 | 1012.8 |
| 20260905194127 | 86 | 323 | 6.0 | 6.0 | 0.00 | 0.02 | 0.33 | 56 | 1012.9 |
| 20260905193626 | 87 | 359 | 2.0 | 4.0 | 0.00 | 0.02 | 0.33 | 55 | 1012.9 |
| 20260905193126 | 87 | 32 | 1.0 | 6.0 | 0.00 | 0.02 | 0.33 | 53 | 1012.9 |
| 20260905192625 | 87 | 330 | 4.0 | 7.0 | 0.00 | 0.02 | 0.33 | 55 | 1013.0 |
| 20260905192125 | 86 | 357 | 3.0 | 5.0 | 0.00 | 0.02 | 0.33 | 55 | 1013.0 |
| 20260905191624 | 86 | 31 | 2.0 | 5.0 | 0.00 | 0.02 | 0.33 | 55 | 1013.1 |
| 20260905191124 | 86 | 15 | 1.0 | 7.0 | 0.00 | 0.02 | 0.33 | 56 | 1013.2 |
| 20260905190623 | 85 | 356 | 5.0 | 4.0 | 0.00 | 0.02 | 0.33 | 56 | 1013.3 |
| 20260905190123 | 85 | 82 | 0.0 | 5.0 | 0.00 | 0.02 | 0.33 | 56 | 1013.4 |
| 20260905185622 | 85 | 269 | 4.0 | 2.0 | 0.00 | 0.02 | 0.33 | 56 | 1013.6 |
| 20260905185122 | 85 | 66 | 1.0 | 6.0 | 0.00 | 0.02 | 0.33 | 56 | 1013.6 |
| 20260905184621 | 84 | 271 | 2.0 | 9.0 | 0.00 | 0.02 | 0.33 | 57 | 1013.6 |
| 20260905184121 | 85 | 328 | 4.0 | 6.0 | 0.00 | 0.02 | 0.33 | 57 | 1013.6 |
| 20260905183620 | 84 | 340 | 4.0 | 9.0 | 0.00 | 0.02 | 0.33 | 57 | 1013.6 |
| 20260905183119 | 84 | 329 | 6.0 | 7.0 | 0.00 | 0.02 | 0.33 | 57 | 1013.8 |
| 20260905182619 | 84 | 330 | 2.0 | 10.0 | 0.00 | 0.02 | 0.33 | 57 | 1013.8 |
| 20260905182118 | 83 | 316 | 6.0 | 9.0 | 0.00 | 0.02 | 0.33 | 57 | 1013.8 |
| 20260905181618 | 83 | 301 | 6.0 | 7.0 | 0.00 | 0.02 | 0.33 | 58 | 1013.8 |
| 20260905181117 | 83 | 305 | 4.0 | 8.0 | 0.00 | 0.02 | 0.33 | 58 | 1014.0 |
| 20260905180617 | 83 | 325 | 4.0 | 9.0 | 0.00 | 0.02 | 0.33 | 60 | 1014.0 |
| 20260905180116 | 83 | 314 | 4.0 | 8.0 | 0.00 | 0.02 | 0.33 | 59 | 1014.1 |
| 20260905175616 | 83 | 359 | 4.0 | 9.0 | 0.00 | 0.02 | 0.33 | 59 | 1014.0 |
| 20260905175115 | 83 | 356 | 6.0 | 5.0 | 0.00 | 0.02 | 0.33 | 58 | 1013.8 |
| 20260905174615 | 83 | 20 | 2.0 | 8.0 | 0.00 | 0.02 | 0.33 | 57 | 1013.8 |
| 20260905174114 | 83 | 312 | 5.0 | 10.0 | 0.00 | 0.02 | 0.33 | 58 | 1014.0 |
| 20260905173614 | 84 | 349 | 6.0 | 8.0 | 0.00 | 0.02 | 0.33 | 57 | 1014.1 |
| 20260905173113 | 84 | 274 | 5.0 | 6.0 | 0.00 | 0.02 | 0.33 | 55 | 1013.7 |
| 20260905172613 | 84 | 153 | 3.0 | 6.0 | 0.00 | 0.02 | 0.33 | 55 | 1013.5 |
| 20260905172112 | 84 | 239 | 5.0 | 6.0 | 0.00 | 0.02 | 0.33 | 55 | 1013.5 |